| time (UTC) | temp C | wind direction | speed KPH | gust KPH | rain 1hr cm | rain 24hr cm | rain mn cm | humidity % | barometer mb |
| 20260505124505 | 25 | 0.0 | 0.0 | 0.00 | 0.00 | 0.00 | 66 | 1024.0 | |
| 20260505121504 | 23 | 0.0 | 0.0 | 0.00 | 0.00 | 0.00 | 70 | 1023.9 | |
| 20260505114504 | 22 | 0.0 | 0.0 | 0.00 | 0.00 | 0.00 | 76 | 1023.6 | |
| 20260505111505 | 22 | 0.0 | 0.0 | 0.00 | 0.00 | 0.00 | 77 | 1023.1 | |
| 20260505101505 | 21 | 0.0 | 0.0 | 0.00 | 0.00 | 0.00 | 85 | 1022.7 | |
| 20260505094505 | 20 | 0.0 | 0.0 | 0.00 | 0.00 | 0.00 | 85 | 1022.4 | |
| 20260505091505 | 20 | 0.0 | 0.0 | 0.00 | 0.00 | 0.00 | 86 | 1022.1 | |
| 20260505084504 | 20 | 0.0 | 0.0 | 0.00 | 0.00 | 0.00 | 85 | 1021.8 | |
| 20260505081504 | 20 | 0.0 | 0.0 | 0.00 | 0.00 | 0.00 | 85 | 1021.4 | |
| 20260505074505 | 20 | 0.0 | 0.0 | 0.00 | 0.00 | 0.00 | 86 | 1021.2 | |
| 20260505071504 | 20 | 0.0 | 0.0 | 0.00 | 0.00 | 0.00 | 86 | 1021.4 | |
| 20260505064514 | 20 | 0.0 | 0.0 | 0.00 | 0.00 | 0.00 | 84 | 1021.6 | |
| 20260505061504 | 21 | 0.0 | 0.0 | 0.00 | 0.00 | 0.00 | 85 | 1021.7 | |
| 20260505054505 | 20 | 0.0 | 0.0 | 0.00 | 0.00 | 0.00 | 85 | 1021.8 | |
| 20260505051504 | 21 | 0.0 | 0.0 | 0.00 | 0.00 | 0.00 | 84 | 1021.8 | |
| 20260505041505 | 21 | 0.0 | 0.0 | 0.00 | 0.00 | 0.00 | 84 | 1022.2 | |
| 20260505034505 | 21 | 0.0 | 0.0 | 0.00 | 0.00 | 0.00 | 83 | 1022.3 | |
| 20260505031504 | 21 | 0.0 | 0.0 | 0.00 | 0.00 | 0.00 | 83 | 1022.2 | |
| 20260505024504 | 21 | 0.0 | 0.0 | 0.00 | 0.00 | 0.00 | 83 | 1022.3 | |
| 20260505021505 | 21 | 0.0 | 0.0 | 0.00 | 0.00 | 0.00 | 82 | 1022.3 | |
| 20260505014505 | 21 | 0.0 | 0.0 | 0.00 | 0.00 | 0.00 | 82 | 1022.3 | |
| 20260505011505 | 21 | 0.0 | 0.0 | 0.00 | 0.00 | 0.00 | 85 | 1022.2 | |
| 20260505004505 | 21 | 0.0 | 0.0 | 0.00 | 0.00 | 0.00 | 83 | 1022.3 | |
| 20260505001504 | 21 | 0.0 | 0.0 | 0.00 | 0.00 | 0.00 | 84 | 1022.1 | |
| 20260504234504 | 21 | 0.0 | 0.0 | 0.00 | 0.00 | 0.00 | 84 | 1022.0 | |
| 20260504231505 | 20 | 0.0 | 0.0 | 0.00 | 0.00 | 0.00 | 88 | 1022.0 | |
| 20260504224504 | 20 | 0.0 | 0.0 | 0.00 | 0.00 | 0.00 | 86 | 1021.4 |